Time,TemperatureF,DewpointF,PressureIn,WindDirection,WindDirectionDegrees,WindSpeedMPH,WindSpeedGustMPH,Humidity,HourlyPrecipIn,Conditions,Clouds,dailyrainin,SoftwareType,DateUTC
2013-04-14 00:00:00,55.0,24.9,29.84,SW,233,6.0,15.0,31,0.00,,,0.00,VWS V14.01,2013-04-14 07:00:00,
2013-04-14 00:02:00,54.9,24.9,29.84,SSW,200,6.0,10.0,31,0.00,,,0.00,VWS V14.01,2013-04-14 07:02:00,
2013-04-14 00:07:00,54.8,25.5,29.84,WSW,244,7.0,15.0,32,0.00,,,0.00,VWS V14.01,2013-04-14 07:07:00,
2013-04-14 00:12:00,54.8,25.5,29.84,WSW,242,12.0,15.0,32,0.00,,,0.00,VWS V14.01,2013-04-14 07:12:00,
2013-04-14 00:17:00,54.8,25.5,29.84,WSW,253,10.0,19.0,32,0.00,,,0.00,VWS V14.01,2013-04-14 07:17:00,
2013-04-14 00:22:00,54.8,25.5,29.84,West,269,5.0,19.0,32,0.00,,,0.00,VWS V14.01,2013-04-14 07:22:00,
2013-04-14 00:27:00,54.8,25.5,29.84,WSW,243,7.0,19.0,32,0.00,,,0.00,VWS V14.01,2013-04-14 07:27:00,
2013-04-14 00:30:00,54.8,25.5,29.84,SSW,194,4.0,19.0,32,0.00,,,0.00,VWS V14.01,2013-04-14 07:30:00,
2013-04-14 00:32:00,54.8,25.5,29.84,WSW,242,10.0,14.0,32,0.00,,,0.00,VWS V14.01,2013-04-14 07:32:00,
2013-04-14 00:37:00,54.8,25.5,29.84,WSW,241,4.0,16.0,32,0.00,,,0.00,VWS V14.01,2013-04-14 07:37:00,
2013-04-14 00:42:00,54.7,25.4,29.84,WSW,251,10.0,16.0,32,0.00,,,0.00,VWS V14.01,2013-04-14 07:42:00,
2013-04-14 00:47:00,54.5,24.5,29.84,SW,228,5.0,16.0,31,0.00,,,0.00,VWS V14.01,2013-04-14 07:47:00,
2013-04-14 00:52:00,54.4,25.2,29.84,SW,231,8.0,16.0,32,0.00,,,0.00,VWS V14.01,2013-04-14 07:52:00,
2013-04-14 00:57:00,54.2,25.0,29.84,West,261,8.0,16.0,32,0.00,,,0.00,VWS V14.01,2013-04-14 07:57:00,
2013-04-14 01:00:00,54.1,24.9,29.83,SW,233,9.0,16.0,32,0.00,,,0.00,VWS V14.01,2013-04-14 08:00:00,
2013-04-14 01:02:00,54.0,24.8,29.84,WSW,246,5.0,14.0,32,0.00,,,0.00,VWS V14.01,2013-04-14 08:02:00,
2013-04-14 01:07:00,53.9,24.7,29.84,West,260,4.0,16.0,32,0.00,,,0.00,VWS V14.01,2013-04-14 08:07:00,
2013-04-14 01:12:00,53.8,24.6,29.84,South,190,3.0,19.0,32,0.00,,,0.00,VWS V14.01,2013-04-14 08:12:00,
2013-04-14 01:18:00,53.8,24.6,29.83,SSW,210,5.0,19.0,32,0.00,,,0.00,VWS V14.01,2013-04-14 08:18:00,
2013-04-14 01:23:00,53.6,24.5,29.83,SW,229,4.0,19.0,32,0.00,,,0.00,VWS V14.01,2013-04-14 08:23:00,
2013-04-14 01:28:00,53.3,24.2,29.84,SSW,209,5.0,19.0,32,0.00,,,0.00,VWS V14.01,2013-04-14 08:28:00,
2013-04-14 01:30:00,53.2,24.9,29.83,SW,229,6.0,19.0,33,0.00,,,0.00,VWS V14.01,2013-04-14 08:30:00,
2013-04-14 01:33:00,53.0,24.7,29.84,WSW,244,6.0,11.0,33,0.00,,,0.00,VWS V14.01,2013-04-14 08:33:00,
2013-04-14 01:38:00,52.7,24.4,29.84,SW,233,6.0,11.0,33,0.00,,,0.00,VWS V14.01,2013-04-14 08:38:00,
2013-04-14 01:43:00,52.5,24.2,29.84,SSW,213,2.0,11.0,33,0.00,,,0.00,VWS V14.01,2013-04-14 08:43:00,
2013-04-14 01:48:00,52.4,24.2,29.83,WSW,240,3.0,11.0,33,0.00,,,0.00,VWS V14.01,2013-04-14 08:48:00,
2013-04-14 01:53:00,52.3,24.1,29.83,SSW,195,9.0,13.0,33,0.00,,,0.00,VWS V14.01,2013-04-14 08:53:00,
2013-04-14 01:58:00,52.2,24.0,29.83,SW,222,4.0,13.0,33,0.00,,,0.00,VWS V14.01,2013-04-14 08:58:00,
2013-04-14 02:00:00,52.2,24.0,29.83,SW,222,3.0,13.0,33,0.00,,,0.00,VWS V14.01,2013-04-14 09:00:00,
2013-04-14 02:03:00,52.2,24.0,29.83,South,180,3.0,10.0,33,0.00,,,0.00,VWS V14.01,2013-04-14 09:03:00,
2013-04-14 02:08:00,52.2,24.0,29.83,South,190,4.0,10.0,33,0.00,,,0.00,VWS V14.01,2013-04-14 09:08:00,
2013-04-14 02:13:00,52.1,23.9,29.83,SSW,205,7.0,10.0,33,0.00,,,0.00,VWS V14.01,2013-04-14 09:13:00,
2013-04-14 02:18:00,52.1,23.9,29.82,SSW,208,4.0,12.0,33,0.00,,,0.00,VWS V14.01,2013-04-14 09:18:00,
2013-04-14 02:23:00,52.2,24.0,29.82,South,190,11.0,15.0,33,0.00,,,0.00,VWS V14.01,2013-04-14 09:23:00,
2013-04-14 02:28:00,52.3,24.1,29.82,SSW,210,4.0,15.0,33,0.00,,,0.00,VWS V14.01,2013-04-14 09:28:00,
2013-04-14 02:30:00,52.3,24.1,29.82,SSW,196,8.0,15.0,33,0.00,,,0.00,VWS V14.01,2013-04-14 09:30:00,
2013-04-14 02:33:00,52.3,24.1,29.82,SSW,192,4.0,10.0,33,0.00,,,0.00,VWS V14.01,2013-04-14 09:33:00,
2013-04-14 02:38:00,52.2,24.0,29.82,South,188,5.0,11.0,33,0.00,,,0.00,VWS V14.01,2013-04-14 09:38:00,
2013-04-14 02:43:00,52.1,23.9,29.82,South,179,4.0,11.0,33,0.00,,,0.00,VWS V14.01,2013-04-14 09:43:00,
2013-04-14 02:48:00,52.0,23.8,29.82,South,173,4.0,11.0,33,0.00,,,0.00,VWS V14.01,2013-04-14 09:48:00,
2013-04-14 02:53:00,51.8,23.6,29.82,SSW,207,4.0,11.0,33,0.00,,,0.00,VWS V14.01,2013-04-14 09:53:00,
2013-04-14 02:58:00,51.7,23.5,29.83,South,189,5.0,13.0,33,0.00,,,0.00,VWS V14.01,2013-04-14 09:58:00,
2013-04-14 03:00:00,51.6,23.5,29.83,South,187,4.0,13.0,33,0.00,,,0.00,VWS V14.01,2013-04-14 10:00:00,
2013-04-14 03:03:00,51.5,23.4,29.82,SW,222,9.0,13.0,33,0.00,,,0.00,VWS V14.01,2013-04-14 10:03:00,
2013-04-14 03:08:00,51.2,23.1,29.82,SSW,209,7.0,13.0,33,0.00,,,0.00,VWS V14.01,2013-04-14 10:08:00,
2013-04-14 03:14:00,50.9,22.8,29.83,SSW,203,3.0,14.0,33,0.00,,,0.00,VWS V14.01,2013-04-14 10:14:00,
2013-04-14 03:19:00,50.8,22.8,29.83,South,183,3.0,14.0,33,0.00,,,0.00,VWS V14.01,2013-04-14 10:19:00,
2013-04-14 03:24:00,50.6,22.6,29.83,WSW,246,5.0,14.0,33,0.00,,,0.00,VWS V14.01,2013-04-14 10:24:00,
2013-04-14 03:29:00,50.5,22.5,29.82,WSW,237,7.0,14.0,33,0.00,,,0.00,VWS V14.01,2013-04-14 10:29:00,
2013-04-14 03:30:00,50.5,22.5,29.82,SW,233,6.0,14.0,33,0.00,,,0.00,VWS V14.01,2013-04-14 10:30:00,
2013-04-14 03:34:00,50.3,22.3,29.82,SSW,212,3.0,11.0,33,0.00,,,0.00,VWS V14.01,2013-04-14 10:34:00,
2013-04-14 03:39:00,50.2,22.2,29.82,SW,228,7.0,12.0,33,0.00,,,0.00,VWS V14.01,2013-04-14 10:39:00,
2013-04-14 03:44:00,50.1,22.1,29.82,SW,217,7.0,16.0,33,0.00,,,0.00,VWS V14.01,2013-04-14 10:44:00,
2013-04-14 03:49:00,50.0,22.0,29.82,WSW,256,5.0,16.0,33,0.00,,,0.00,VWS V14.01,2013-04-14 10:49:00,
2013-04-14 03:54:00,49.8,21.9,29.82,SSW,205,6.0,16.0,33,0.00,,,0.00,VWS V14.01,2013-04-14 10:54:00,
2013-04-14 03:59:00,49.6,21.7,29.82,South,178,4.0,16.0,33,0.00,,,0.00,VWS V14.01,2013-04-14 10:59:00,
2013-04-14 04:00:00,49.5,21.6,29.82,SSW,207,6.0,16.0,33,0.00,,,0.00,VWS V14.01,2013-04-14 11:00:00,
2013-04-14 04:04:00,49.4,21.5,29.82,SW,219,4.0,9.0,33,0.00,,,0.00,VWS V14.01,2013-04-14 11:04:00,
2013-04-14 04:09:00,49.3,22.1,29.82,SW,234,7.0,12.0,34,0.00,,,0.00,VWS V14.01,2013-04-14 11:09:00,
2013-04-14 04:14:00,49.2,22.0,29.82,South,176,7.0,12.0,34,0.00,,,0.00,VWS V14.01,2013-04-14 11:14:00,
2013-04-14 04:19:00,49.1,22.0,29.82,SSW,210,5.0,12.0,34,0.00,,,0.00,VWS V14.01,2013-04-14 11:19:00,
2013-04-14 04:24:00,48.9,21.8,29.82,SSW,198,11.0,12.0,34,0.00,,,0.00,VWS V14.01,2013-04-14 11:24:00,
2013-04-14 04:29:00,48.9,21.8,29.82,SSW,192,6.0,14.0,34,0.00,,,0.00,VWS V14.01,2013-04-14 11:29:00,
2013-04-14 04:30:00,48.9,21.8,29.82,SW,227,8.0,14.0,34,0.00,,,0.00,VWS V14.01,2013-04-14 11:30:00,
2013-04-14 04:34:00,48.9,21.8,29.82,SSW,208,3.0,15.0,34,0.00,,,0.00,VWS V14.01,2013-04-14 11:34:00,
2013-04-14 04:39:00,48.9,21.8,29.82,South,185,8.0,15.0,34,0.00,,,0.00,VWS V14.01,2013-04-14 11:39:00,
2013-04-14 04:44:00,48.8,21.7,29.82,SW,232,3.0,15.0,34,0.00,,,0.00,VWS V14.01,2013-04-14 11:44:00,
2013-04-14 04:49:00,48.8,21.7,29.82,SSW,197,4.0,15.0,34,0.00,,,0.00,VWS V14.01,2013-04-14 11:49:00,
2013-04-14 04:54:00,48.6,21.5,29.82,South,190,6.0,15.0,34,0.00,,,0.00,VWS V14.01,2013-04-14 11:54:00,
2013-04-14 04:59:00,48.4,21.3,29.82,South,185,8.0,15.0,34,0.00,,,0.00,VWS V14.01,2013-04-14 11:59:00,
2013-04-14 05:00:00,48.4,21.3,29.82,SSW,196,6.0,15.0,34,0.00,,,0.00,VWS V14.01,2013-04-14 12:00:00,
2013-04-14 05:04:00,48.4,21.3,29.82,SSW,203,2.0,15.0,34,0.00,,,0.00,VWS V14.01,2013-04-14 12:04:00,
2013-04-14 05:09:00,48.5,21.4,29.81,South,191,5.0,15.0,34,0.00,,,0.00,VWS V14.01,2013-04-14 12:09:00,
2013-04-14 05:14:00,48.6,21.5,29.81,South,185,10.0,15.0,34,0.00,,,0.00,VWS V14.01,2013-04-14 12:14:00,
2013-04-14 05:19:00,48.6,21.5,29.81,SSW,196,6.0,15.0,34,0.00,,,0.00,VWS V14.01,2013-04-14 12:19:00,
2013-04-14 05:24:00,48.6,22.2,29.81,WSW,239,3.0,15.0,35,0.00,,,0.00,VWS V14.01,2013-04-14 12:24:00,
2013-04-14 05:29:00,48.6,22.2,29.81,SW,224,7.0,15.0,35,0.00,,,0.00,VWS V14.01,2013-04-14 12:29:00,
2013-04-14 05:30:00,48.6,22.2,29.81,SSW,207,13.0,15.0,35,0.00,,,0.00,VWS V14.01,2013-04-14 12:30:00,
2013-04-14 05:34:00,48.7,22.3,29.81,SSW,192,9.0,15.0,35,0.00,,,0.00,VWS V14.01,2013-04-14 12:34:00,
2013-04-14 05:39:00,48.6,22.2,29.81,SW,214,8.0,15.0,35,0.00,,,0.00,VWS V14.01,2013-04-14 12:39:00,
2013-04-14 05:44:00,48.5,22.1,29.81,SW,228,3.0,15.0,35,0.00,,,0.00,VWS V14.01,2013-04-14 12:44:00,
2013-04-14 05:49:00,48.4,22.0,29.81,SW,218,10.0,15.0,35,0.00,,,0.00,VWS V14.01,2013-04-14 12:49:00,
2013-04-14 05:54:00,48.4,22.7,29.81,SW,218,7.0,15.0,36,0.00,,,0.00,VWS V14.01,2013-04-14 12:54:00,
2013-04-14 05:59:00,48.3,22.6,29.81,SSW,195,9.0,15.0,36,0.00,,,0.00,VWS V14.01,2013-04-14 12:59:00,
2013-04-14 06:00:00,48.3,22.6,29.81,SSW,195,9.0,15.0,36,0.00,,,0.00,VWS V14.01,2013-04-14 13:00:00,
2013-04-14 06:04:00,48.4,22.7,29.81,SW,233,9.0,14.0,36,0.00,,,0.00,VWS V14.01,2013-04-14 13:04:00,
2013-04-14 06:09:00,48.5,22.8,29.81,SSW,193,5.0,14.0,36,0.00,,,0.00,VWS V14.01,2013-04-14 13:09:00,
2013-04-14 06:15:00,48.5,22.8,29.81,SSW,197,7.0,14.0,36,0.00,,,0.00,VWS V14.01,2013-04-14 13:15:00,
2013-04-14 06:20:00,48.6,22.9,29.81,SW,223,10.0,14.0,36,0.00,,,0.00,VWS V14.01,2013-04-14 13:20:00,
2013-04-14 06:25:00,48.8,23.0,29.82,SW,236,7.0,14.0,36,0.00,,,0.00,VWS V14.01,2013-04-14 13:25:00,
2013-04-14 06:30:00,49.2,23.4,29.82,SW,235,5.0,9.0,36,0.00,,,0.00,VWS V14.01,2013-04-14 13:30:00,
2013-04-14 06:35:00,49.9,23.4,29.82,SSW,213,5.0,13.0,35,0.00,,,0.00,VWS V14.01,2013-04-14 13:35:00,
2013-04-14 06:40:00,50.7,24.1,29.82,SW,233,4.0,14.0,35,0.00,,,0.00,VWS V14.01,2013-04-14 13:40:00,
2013-04-14 06:45:00,51.5,24.1,29.82,South,171,3.0,14.0,34,0.00,,,0.00,VWS V14.01,2013-04-14 13:45:00,
2013-04-14 06:50:00,52.1,24.6,29.82,South,187,4.0,14.0,34,0.00,,,0.00,VWS V14.01,2013-04-14 13:50:00,
2013-04-14 06:55:00,52.8,24.5,29.82,SSW,209,9.0,14.0,33,0.00,,,0.00,VWS V14.01,2013-04-14 13:55:00,
2013-04-14 07:00:00,53.3,25.0,29.82,SW,214,8.0,14.0,33,0.00,,,0.00,VWS V14.01,2013-04-14 14:00:00,
2013-04-14 07:05:00,53.8,24.6,29.82,SW,221,5.0,16.0,32,0.00,,,0.00,VWS V14.01,2013-04-14 14:05:00,
2013-04-14 07:10:00,54.2,25.0,29.83,SSW,198,11.0,16.0,32,0.00,,,0.00,VWS V14.01,2013-04-14 14:10:00,
2013-04-14 07:15:00,54.3,25.1,29.83,SW,224,6.0,16.0,32,0.00,,,0.00,VWS V14.01,2013-04-14 14:15:00,
2013-04-14 07:20:00,54.7,25.4,29.83,SSW,200,11.0,17.0,32,0.00,,,0.00,VWS V14.01,2013-04-14 14:20:00,
2013-04-14 07:25:00,55.2,25.1,29.83,SSW,194,9.0,17.0,31,0.00,,,0.00,VWS V14.01,2013-04-14 14:25:00,
2013-04-14 07:30:00,55.8,25.6,29.83,South,172,4.0,7.0,31,0.00,,,0.00,VWS V14.01,2013-04-14 14:30:00,
2013-04-14 07:35:00,56.4,25.4,29.83,SSW,196,7.0,14.0,30,0.00,,,0.00,VWS V14.01,2013-04-14 14:35:00,
2013-04-14 07:41:00,57.1,26.0,29.83,South,175,8.0,15.0,30,0.00,,,0.00,VWS V14.01,2013-04-14 14:41:00,
2013-04-14 07:46:00,57.6,26.4,29.84,SSW,196,4.0,15.0,30,0.00,,,0.00,VWS V14.01,2013-04-14 14:46:00,
2013-04-14 07:51:00,58.1,26.9,29.83,South,185,7.0,19.0,30,0.00,,,0.00,VWS V14.01,2013-04-14 14:51:00,
2013-04-14 07:57:00,58.4,27.1,29.83,SSW,198,6.0,19.0,30,0.00,,,0.00,VWS V14.01,2013-04-14 14:57:00,
2013-04-14 08:00:00,58.7,26.5,29.83,SSW,208,5.0,19.0,29,0.00,,,0.00,VWS V14.01,2013-04-14 15:00:00,
2013-04-14 08:02:00,58.9,26.7,29.84,SSW,201,13.0,13.0,29,0.00,,,0.00,VWS V14.01,2013-04-14 15:02:00,
2013-04-14 08:07:00,59.6,26.5,29.84,SSW,194,9.0,13.0,28,0.00,,,0.00,VWS V14.01,2013-04-14 15:07:00,
2013-04-14 08:12:00,60.2,27.0,29.84,South,186,6.0,13.0,28,0.00,,,0.00,VWS V14.01,2013-04-14 15:12:00,
2013-04-14 08:17:00,60.4,26.3,29.84,SSW,205,6.0,14.0,27,0.00,,,0.00,VWS V14.01,2013-04-14 15:17:00,
2013-04-14 08:22:00,60.7,26.5,29.84,SSW,193,7.0,14.0,27,0.00,,,0.00,VWS V14.01,2013-04-14 15:22:00,
2013-04-14 08:27:00,61.2,27.0,29.84,SW,216,4.0,14.0,27,0.00,,,0.00,VWS V14.01,2013-04-14 15:27:00,
2013-04-14 08:30:00,61.5,27.2,29.84,West,264,2.0,14.0,27,0.00,,,0.00,VWS V14.01,2013-04-14 15:30:00,
2013-04-14 08:32:00,61.8,26.6,29.84,SSW,211,11.0,11.0,26,0.00,,,0.00,VWS V14.01,2013-04-14 15:32:00,
2013-04-14 08:37:00,62.1,26.8,29.85,SSW,213,7.0,11.0,26,0.00,,,0.00,VWS V14.01,2013-04-14 15:37:00,
2013-04-14 08:42:00,62.8,27.4,29.85,SSW,209,4.0,11.0,26,0.00,,,0.00,VWS V14.01,2013-04-14 15:42:00,
2013-04-14 08:47:00,63.3,26.9,29.85,West,273,3.0,11.0,25,0.00,,,0.00,VWS V14.01,2013-04-14 15:47:00,
2013-04-14 08:52:00,63.7,27.2,29.85,SSW,210,8.0,13.0,25,0.00,,,0.00,VWS V14.01,2013-04-14 15:52:00,
2013-04-14 08:57:00,64.2,27.7,29.85,SSW,211,8.0,13.0,25,0.00,,,0.00,VWS V14.01,2013-04-14 15:57:00,
2013-04-14 09:00:00,64.4,27.8,29.85,SSW,203,4.0,13.0,25,0.00,,,0.00,VWS V14.01,2013-04-14 16:00:00,
2013-04-14 09:02:00,64.7,28.1,29.85,South,185,4.0,8.0,25,0.00,,,0.00,VWS V14.01,2013-04-14 16:02:00,
2013-04-14 09:07:00,64.8,27.2,29.85,South,178,8.0,9.0,24,0.00,,,0.00,VWS V14.01,2013-04-14 16:07:00,
2013-04-14 09:13:00,64.7,27.1,29.85,South,171,6.0,14.0,24,0.00,,,0.00,VWS V14.01,2013-04-14 16:13:00,
2013-04-14 09:18:00,64.9,27.3,29.85,SW,226,4.0,14.0,24,0.00,,,0.00,VWS V14.01,2013-04-14 16:18:00,
2013-04-14 09:23:00,65.1,28.4,29.85,South,171,6.0,14.0,25,0.00,,,0.00,VWS V14.01,2013-04-14 16:23:00,
2013-04-14 09:28:00,65.4,27.7,29.85,SSW,193,5.0,14.0,24,0.00,,,0.00,VWS V14.01,2013-04-14 16:28:00,
2013-04-14 09:30:00,65.5,27.8,29.85,South,184,6.0,14.0,24,0.00,,,0.00,VWS V14.01,2013-04-14 16:30:00,
2013-04-14 09:33:00,65.7,28.0,29.85,South,190,2.0,11.0,24,0.00,,,0.00,VWS V14.01,2013-04-14 16:33:00,
2013-04-14 09:38:00,65.7,28.0,29.85,SW,222,6.0,16.0,24,0.00,,,0.00,VWS V14.01,2013-04-14 16:38:00,
2013-04-14 09:43:00,65.6,27.9,29.85,South,183,7.0,16.0,24,0.00,,,0.00,VWS V14.01,2013-04-14 16:43:00,
2013-04-14 09:48:00,65.4,27.7,29.85,SSW,195,8.0,16.0,24,0.00,,,0.00,VWS V14.01,2013-04-14 16:48:00,
2013-04-14 09:53:00,65.9,28.1,29.85,South,172,12.0,16.0,24,0.00,,,0.00,VWS V14.01,2013-04-14 16:53:00,
2013-04-14 09:58:00,66.1,28.3,29.86,South,187,8.0,16.0,24,0.00,,,0.00,VWS V14.01,2013-04-14 16:58:00,
2013-04-14 10:00:00,66.2,29.4,29.86,SSW,210,9.0,16.0,25,0.00,,,0.00,VWS V14.01,2013-04-14 17:00:00,
2013-04-14 10:03:00,66.3,29.5,29.86,South,178,6.0,11.0,25,0.00,,,0.00,VWS V14.01,2013-04-14 17:03:00,
2013-04-14 10:08:00,66.4,29.5,29.86,SSW,194,8.0,13.0,25,0.00,,,0.00,VWS V14.01,2013-04-14 17:08:00,
2013-04-14 10:13:00,66.8,28.9,29.85,South,188,8.0,13.0,24,0.00,,,0.00,VWS V14.01,2013-04-14 17:13:00,
2013-04-14 10:18:00,67.0,29.0,29.86,SW,232,5.0,16.0,24,0.00,,,0.00,VWS V14.01,2013-04-14 17:18:00,
2013-04-14 10:23:00,67.2,27.1,29.86,WSW,249,10.0,16.0,22,0.00,,,0.00,VWS V14.01,2013-04-14 17:23:00,
2013-04-14 10:28:00,67.6,28.5,29.86,SW,234,4.0,16.0,23,0.00,,,0.00,VWS V14.01,2013-04-14 17:28:00,
2013-04-14 10:30:00,67.7,28.6,29.86,SSE,162,8.0,16.0,23,0.00,,,0.00,VWS V14.01,2013-04-14 17:30:00,
2013-04-14 10:33:00,67.8,28.7,29.86,South,178,9.0,13.0,23,0.00,,,0.00,VWS V14.01,2013-04-14 17:33:00,
2013-04-14 10:38:00,67.9,28.8,29.86,SW,216,6.0,13.0,23,0.00,,,0.00,VWS V14.01,2013-04-14 17:38:00,
2013-04-14 10:43:00,68.0,27.8,29.86,WNW,282,9.0,13.0,22,0.00,,,0.00,VWS V14.01,2013-04-14 17:43:00,
2013-04-14 10:48:00,68.0,27.8,29.85,West,264,4.0,14.0,22,0.00,,,0.00,VWS V14.01,2013-04-14 17:48:00,
2013-04-14 10:53:00,68.5,28.2,29.86,SW,218,13.0,15.0,22,0.00,,,0.00,VWS V14.01,2013-04-14 17:53:00,
2013-04-14 10:58:00,68.5,28.2,29.85,SW,234,6.0,16.0,22,0.00,,,0.00,VWS V14.01,2013-04-14 17:58:00,
2013-04-14 11:00:00,68.4,28.1,29.85,ENE,66,2.0,16.0,22,0.00,,,0.00,VWS V14.01,2013-04-14 18:00:00,
2013-04-14 11:03:00,68.4,28.1,29.85,SW,228,4.0,16.0,22,0.00,,,0.00,VWS V14.01,2013-04-14 18:03:00,
2013-04-14 11:08:00,68.7,28.4,29.85,SW,234,5.0,16.0,22,0.00,,,0.00,VWS V14.01,2013-04-14 18:08:00,
2013-04-14 11:13:00,69.0,29.7,29.85,SW,235,8.0,17.0,23,0.00,,,0.00,VWS V14.01,2013-04-14 18:13:00,
2013-04-14 11:18:00,69.3,28.9,29.85,South,183,9.0,17.0,22,0.00,,,0.00,VWS V14.01,2013-04-14 18:18:00,
2013-04-14 11:23:00,69.5,27.9,29.85,SSW,209,4.0,18.0,21,0.00,,,0.00,VWS V14.01,2013-04-14 18:23:00,
2013-04-14 11:28:00,69.5,27.9,29.85,SW,233,14.0,24.0,21,0.00,,,0.00,VWS V14.01,2013-04-14 18:28:00,
2013-04-14 11:30:00,69.5,27.9,29.85,WNW,289,6.0,24.0,21,0.00,,,0.00,VWS V14.01,2013-04-14 18:30:00,
2013-04-14 11:33:00,69.5,27.9,29.85,SW,217,8.0,11.0,21,0.00,,,0.00,VWS V14.01,2013-04-14 18:33:00,
2013-04-14 11:38:00,69.7,29.2,29.85,WSW,258,9.0,17.0,22,0.00,,,0.00,VWS V14.01,2013-04-14 18:38:00,
2013-04-14 11:43:00,69.5,29.0,29.85,SW,236,10.0,17.0,22,0.00,,,0.00,VWS V14.01,2013-04-14 18:43:00,
2013-04-14 11:48:00,69.4,28.9,29.85,SW,230,6.0,17.0,22,0.00,,,0.00,VWS V14.01,2013-04-14 18:48:00,
2013-04-14 11:53:00,69.3,28.9,29.85,West,265,4.0,23.0,22,0.00,,,0.00,VWS V14.01,2013-04-14 18:53:00,
2013-04-14 11:58:00,69.5,29.0,29.84,West,265,7.0,23.0,22,0.00,,,0.00,VWS V14.01,2013-04-14 18:58:00,
2013-04-14 12:00:00,69.7,29.2,29.84,SSW,212,4.0,23.0,22,0.00,,,0.00,VWS V14.01,2013-04-14 19:00:00,
2013-04-14 12:03:00,70.2,29.6,29.85,South,184,8.0,19.0,22,0.00,,,0.00,VWS V14.01,2013-04-14 19:03:00,
2013-04-14 12:08:00,70.6,29.9,29.84,SSW,198,7.0,19.0,22,0.00,,,0.00,VWS V14.01,2013-04-14 19:08:00,
2013-04-14 12:13:00,71.1,30.4,29.84,SSW,213,10.0,19.0,22,0.00,,,0.00,VWS V14.01,2013-04-14 19:13:00,
2013-04-14 12:18:00,71.4,30.6,29.84,SSW,200,9.0,19.0,22,0.00,,,0.00,VWS V14.01,2013-04-14 19:18:00,
2013-04-14 12:23:00,71.6,29.6,29.84,SSW,210,6.0,19.0,21,0.00,,,0.00,VWS V14.01,2013-04-14 19:23:00,
2013-04-14 12:28:00,71.3,30.5,29.84,SSW,199,8.0,20.0,22,0.00,,,0.00,VWS V14.01,2013-04-14 19:28:00,
2013-04-14 12:30:00,71.3,30.5,29.83,SE,138,4.0,20.0,22,0.00,,,0.00,VWS V14.01,2013-04-14 19:30:00,
2013-04-14 12:33:00,71.2,30.4,29.84,WSW,253,6.0,13.0,22,0.00,,,0.00,VWS V14.01,2013-04-14 19:33:00,
2013-04-14 12:38:00,71.1,30.4,29.84,West,261,12.0,15.0,22,0.00,,,0.00,VWS V14.01,2013-04-14 19:38:00,
2013-04-14 12:43:00,70.9,30.2,29.84,West,259,11.0,19.0,22,0.00,,,0.00,VWS V14.01,2013-04-14 19:43:00,
2013-04-14 12:48:00,71.3,30.5,29.84,SW,227,7.0,19.0,22,0.00,,,0.00,VWS V14.01,2013-04-14 19:48:00,
2013-04-14 12:53:00,71.5,30.7,29.84,SSW,207,9.0,19.0,22,0.00,,,0.00,VWS V14.01,2013-04-14 19:53:00,
2013-04-14 12:58:00,71.7,30.9,29.84,South,190,5.0,19.0,22,0.00,,,0.00,VWS V14.01,2013-04-14 19:58:00,
2013-04-14 13:00:00,71.7,30.9,29.83,WSW,240,4.0,19.0,22,0.00,,,0.00,VWS V14.01,2013-04-14 20:00:00,
2013-04-14 13:03:00,71.7,29.7,29.83,SSW,199,8.0,14.0,21,0.00,,,0.00,VWS V14.01,2013-04-14 20:03:00,
2013-04-14 13:08:00,71.7,30.9,29.84,SSW,192,11.0,17.0,22,0.00,,,0.00,VWS V14.01,2013-04-14 20:08:00,
2013-04-14 13:13:00,71.7,30.9,29.83,SW,227,7.0,25.0,22,0.00,,,0.00,VWS V14.01,2013-04-14 20:13:00,
2013-04-14 13:18:00,71.8,30.9,29.83,SSE,159,10.0,25.0,22,0.00,,,0.00,VWS V14.01,2013-04-14 20:18:00,
2013-04-14 13:23:00,71.7,30.9,29.84,SSW,193,10.0,25.0,22,0.00,,,0.00,VWS V14.01,2013-04-14 20:23:00,
2013-04-14 13:28:00,71.4,30.6,29.83,SSE,150,4.0,25.0,22,0.00,,,0.00,VWS V14.01,2013-04-14 20:28:00,
2013-04-14 13:30:00,71.5,30.7,29.83,South,169,5.0,25.0,22,0.00,,,0.00,VWS V14.01,2013-04-14 20:30:00,
2013-04-14 13:33:00,71.7,30.9,29.83,SW,231,5.0,15.0,22,0.00,,,0.00,VWS V14.01,2013-04-14 20:33:00,
2013-04-14 13:38:00,71.7,30.9,29.84,West,281,3.0,15.0,22,0.00,,,0.00,VWS V14.01,2013-04-14 20:38:00,
2013-04-14 13:43:00,71.4,30.6,29.83,SSW,210,2.0,15.0,22,0.00,,,0.00,VWS V14.01,2013-04-14 20:43:00,
2013-04-14 13:49:00,71.4,30.6,29.83,WSW,249,8.0,15.0,22,0.00,,,0.00,VWS V14.01,2013-04-14 20:49:00,
2013-04-14 13:54:00,71.3,30.5,29.83,West,261,4.0,15.0,22,0.00,,,0.00,VWS V14.01,2013-04-14 20:54:00,
2013-04-14 13:59:00,71.1,30.4,29.83,WSW,251,5.0,23.0,22,0.00,,,0.00,VWS V14.01,2013-04-14 20:59:00,
2013-04-14 14:00:00,71.1,31.5,29.82,South,183,12.0,23.0,23,0.00,,,0.00,VWS V14.01,2013-04-14 21:00:00,
2013-04-14 14:04:00,71.3,30.5,29.83,SSW,204,4.0,16.0,22,0.00,,,0.00,VWS V14.01,2013-04-14 21:04:00,
2013-04-14 14:09:00,71.4,31.7,29.82,SW,228,6.0,19.0,23,0.00,,,0.00,VWS V14.01,2013-04-14 21:09:00,
2013-04-14 14:14:00,71.4,30.6,29.82,SW,225,9.0,21.0,22,0.00,,,0.00,VWS V14.01,2013-04-14 21:14:00,
2013-04-14 14:19:00,71.3,31.6,29.82,South,188,4.0,21.0,23,0.00,,,0.00,VWS V14.01,2013-04-14 21:19:00,
2013-04-14 14:24:00,71.5,31.8,29.82,SW,231,8.0,21.0,23,0.00,,,0.00,VWS V14.01,2013-04-14 21:24:00,
2013-04-14 14:29:00,71.5,31.8,29.82,SSW,213,8.0,21.0,23,0.00,,,0.00,VWS V14.01,2013-04-14 21:29:00,
2013-04-14 14:30:00,71.5,31.8,29.82,SSW,213,8.0,21.0,23,0.00,,,0.00,VWS V14.01,2013-04-14 21:30:00,
2013-04-14 14:35:00,71.4,31.7,29.82,West,263,8.0,16.0,23,0.00,,,0.00,VWS V14.01,2013-04-14 21:35:00,
2013-04-14 14:40:00,70.8,31.2,29.82,South,189,10.0,19.0,23,0.00,,,0.00,VWS V14.01,2013-04-14 21:40:00,
2013-04-14 14:45:00,70.7,31.1,29.81,South,187,7.0,19.0,23,0.00,,,0.00,VWS V14.01,2013-04-14 21:45:00,
2013-04-14 14:50:00,70.6,31.0,29.81,SSW,199,13.0,19.0,23,0.00,,,0.00,VWS V14.01,2013-04-14 21:50:00,
2013-04-14 14:55:00,70.7,31.1,29.81,SSW,196,11.0,22.0,23,0.00,,,0.00,VWS V14.01,2013-04-14 21:55:00,
2013-04-14 15:00:00,70.5,31.0,29.81,South,184,4.0,9.0,23,0.00,,,0.00,VWS V14.01,2013-04-14 22:00:00,
2013-04-14 15:05:00,70.3,30.8,29.81,SW,223,4.0,18.0,23,0.00,,,0.00,VWS V14.01,2013-04-14 22:05:00,
2013-04-14 15:10:00,70.4,30.9,29.81,South,188,8.0,18.0,23,0.00,,,0.00,VWS V14.01,2013-04-14 22:10:00,
2013-04-14 15:15:00,70.5,32.0,29.80,SSW,192,11.0,18.0,24,0.00,,,0.00,VWS V14.01,2013-04-14 22:15:00,
2013-04-14 15:20:00,70.5,31.0,29.80,SW,220,19.0,19.0,23,0.00,,,0.00,VWS V14.01,2013-04-14 22:20:00,
2013-04-14 15:25:00,70.4,30.9,29.80,WSW,254,5.0,19.0,23,0.00,,,0.00,VWS V14.01,2013-04-14 22:25:00,
2013-04-14 15:30:00,70.6,31.0,29.80,West,264,8.0,13.0,23,0.00,,,0.00,VWS V14.01,2013-04-14 22:30:00,
2013-04-14 15:35:00,70.7,31.1,29.80,West,261,8.0,13.0,23,0.00,,,0.00,VWS V14.01,2013-04-14 22:35:00,
2013-04-14 15:40:00,70.4,30.9,29.79,WNW,296,12.0,19.0,23,0.00,,,0.00,VWS V14.01,2013-04-14 22:40:00,
2013-04-14 15:46:00,69.9,30.5,29.79,West,275,9.0,20.0,23,0.00,,,0.00,VWS V14.01,2013-04-14 22:46:00,
2013-04-14 15:51:00,69.5,31.2,29.79,West,265,12.0,20.0,24,0.00,,,0.00,VWS V14.01,2013-04-14 22:51:00,
2013-04-14 15:56:00,69.0,30.7,29.79,West,263,6.0,20.0,24,0.00,,,0.00,VWS V14.01,2013-04-14 22:56:00,
2013-04-14 16:00:00,69.0,30.7,29.79,West,270,5.0,20.0,24,0.00,,,0.00,VWS V14.01,2013-04-14 23:00:00,
2013-04-14 16:01:00,68.9,30.6,29.79,South,191,4.0,14.0,24,0.00,,,0.00,VWS V14.01,2013-04-14 23:01:00,
2013-04-14 16:06:00,68.8,30.6,29.79,SSW,195,13.0,19.0,24,0.00,,,0.00,VWS V14.01,2013-04-14 23:06:00,
2013-04-14 16:11:00,68.8,30.6,29.79,WSW,240,2.0,19.0,24,0.00,,,0.00,VWS V14.01,2013-04-14 23:11:00,
2013-04-14 16:16:00,68.9,30.6,29.79,South,176,17.0,23.0,24,0.00,,,0.00,VWS V14.01,2013-04-14 23:16:00,
2013-04-14 16:21:00,68.6,30.4,29.79,SW,229,10.0,23.0,24,0.00,,,0.00,VWS V14.01,2013-04-14 23:21:00,
2013-04-14 16:26:00,68.5,30.3,29.79,SW,220,5.0,23.0,24,0.00,,,0.00,VWS V14.01,2013-04-14 23:26:00,
2013-04-14 16:31:00,68.5,31.3,29.78,South,179,7.0,15.0,25,0.00,,,0.00,VWS V14.01,2013-04-14 23:31:00,
2013-04-14 16:37:00,68.5,31.3,29.79,WSW,249,10.0,15.0,25,0.00,,,0.00,VWS V14.01,2013-04-14 23:37:00,
2013-04-14 16:42:00,68.4,30.2,29.79,SW,234,6.0,21.0,24,0.00,,,0.00,VWS V14.01,2013-04-14 23:42:00,
2013-04-14 16:47:00,68.0,30.9,29.78,West,259,7.0,21.0,25,0.00,,,0.00,VWS V14.01,2013-04-14 23:47:00,
2013-04-14 16:51:00,67.7,30.6,29.79,WSW,241,9.0,21.0,25,0.00,,,0.00,VWS V14.01,2013-04-14 23:51:00,
2013-04-14 16:56:00,67.3,30.3,29.79,SSW,207,8.0,21.0,25,0.00,,,0.00,VWS V14.01,2013-04-14 23:56:00,
2013-04-14 17:00:00,67.2,30.2,29.78,South,184,9.0,21.0,25,0.00,,,0.00,VWS V14.01,2013-04-15 00:00:00,
2013-04-14 17:01:00,67.1,30.1,29.79,SSW,210,14.0,20.0,25,0.00,,,0.00,VWS V14.01,2013-04-15 00:01:00,
2013-04-14 17:07:00,66.6,29.7,29.79,SW,220,13.0,20.0,25,0.00,,,0.00,VWS V14.01,2013-04-15 00:07:00,
2013-04-14 17:12:00,66.2,29.4,29.79,SSW,198,12.0,20.0,25,0.00,,,0.00,VWS V14.01,2013-04-15 00:12:00,
2013-04-14 17:17:00,66.0,29.2,29.78,SW,233,3.0,20.0,25,0.00,,,0.00,VWS V14.01,2013-04-15 00:17:00,
2013-04-14 17:22:00,65.8,29.0,29.78,SSW,206,11.0,22.0,25,0.00,,,0.00,VWS V14.01,2013-04-15 00:22:00,
2013-04-14 17:27:00,65.6,28.9,29.78,SW,217,6.0,22.0,25,0.00,,,0.00,VWS V14.01,2013-04-15 00:27:00,
2013-04-14 17:30:00,65.5,28.8,29.78,SSW,199,7.0,22.0,25,0.00,,,0.00,VWS V14.01,2013-04-15 00:30:00,
2013-04-14 17:32:00,65.4,28.7,29.78,SSW,193,7.0,17.0,25,0.00,,,0.00,VWS V14.01,2013-04-15 00:32:00,
2013-04-14 17:37:00,65.1,28.4,29.78,WSW,240,8.0,17.0,25,0.00,,,0.00,VWS V14.01,2013-04-15 00:37:00,
2013-04-14 17:42:00,64.9,28.3,29.79,SSW,209,8.0,17.0,25,0.00,,,0.00,VWS V14.01,2013-04-15 00:42:00,
2013-04-14 17:47:00,64.7,28.1,29.78,SW,232,5.0,17.0,25,0.00,,,0.00,VWS V14.01,2013-04-15 00:47:00,
2013-04-14 17:52:00,64.4,28.8,29.78,SW,230,7.0,24.0,26,0.00,,,0.00,VWS V14.01,2013-04-15 00:52:00,
2013-04-14 17:57:00,64.1,28.5,29.79,SSW,210,12.0,24.0,26,0.00,,,0.00,VWS V14.01,2013-04-15 00:57:00,
2013-04-14 18:00:00,63.9,28.4,29.79,WSW,247,12.0,24.0,26,0.00,,,0.00,VWS V14.01,2013-04-15 01:00:00,
2013-04-14 18:02:00,63.8,28.3,29.78,SW,223,8.0,16.0,26,0.00,,,0.00,VWS V14.01,2013-04-15 01:02:00,
2013-04-14 18:07:00,63.6,29.0,29.79,SW,224,6.0,17.0,27,0.00,,,0.00,VWS V14.01,2013-04-15 01:07:00,
2013-04-14 18:12:00,63.3,28.8,29.79,SW,228,5.0,17.0,27,0.00,,,0.00,VWS V14.01,2013-04-15 01:12:00,
2013-04-14 18:17:00,63.0,28.5,29.79,South,173,8.0,17.0,27,0.00,,,0.00,VWS V14.01,2013-04-15 01:17:00,
2013-04-14 18:22:00,62.8,28.4,29.78,WSW,241,13.0,18.0,27,0.00,,,0.00,VWS V14.01,2013-04-15 01:22:00,
2013-04-14 18:27:00,62.4,28.0,29.78,SSW,204,5.0,18.0,27,0.00,,,0.00,VWS V14.01,2013-04-15 01:27:00,
2013-04-14 18:30:00,62.3,27.9,29.78,South,179,7.0,18.0,27,0.00,,,0.00,VWS V14.01,2013-04-15 01:30:00,
2013-04-14 18:32:00,62.2,27.8,29.78,SSW,213,9.0,22.0,27,0.00,,,0.00,VWS V14.01,2013-04-15 01:32:00,
2013-04-14 18:37:00,61.8,28.4,29.79,SW,232,13.0,22.0,28,0.00,,,0.00,VWS V14.01,2013-04-15 01:37:00,
2013-04-14 18:42:00,61.6,28.2,29.78,SW,217,6.0,22.0,28,0.00,,,0.00,VWS V14.01,2013-04-15 01:42:00,
2013-04-14 18:47:00,61.4,27.1,29.79,SSW,200,10.0,22.0,27,0.00,,,0.00,VWS V14.01,2013-04-15 01:47:00,
2013-04-14 18:52:00,61.0,27.7,29.78,SW,227,7.0,22.0,28,0.00,,,0.00,VWS V14.01,2013-04-15 01:52:00,
2013-04-14 18:57:00,60.8,27.5,29.78,SSW,201,4.0,22.0,28,0.00,,,0.00,VWS V14.01,2013-04-15 01:57:00,
2013-04-14 19:00:00,60.6,27.3,29.78,South,187,8.0,22.0,28,0.00,,,0.00,VWS V14.01,2013-04-15 02:00:00,
2013-04-14 19:02:00,60.5,26.4,29.78,SW,220,9.0,14.0,27,0.00,,,0.00,VWS V14.01,2013-04-15 02:02:00,
2013-04-14 19:07:00,60.2,27.0,29.78,South,185,5.0,16.0,28,0.00,,,0.00,VWS V14.01,2013-04-15 02:07:00,
2013-04-14 19:12:00,59.9,26.7,29.78,West,259,2.0,16.0,28,0.00,,,0.00,VWS V14.01,2013-04-15 02:12:00,
2013-04-14 19:18:00,59.7,27.4,29.78,WSW,246,6.0,16.0,29,0.00,,,0.00,VWS V14.01,2013-04-15 02:18:00,
2013-04-14 19:23:00,59.5,27.2,29.78,SW,215,10.0,16.0,29,0.00,,,0.00,VWS V14.01,2013-04-15 02:23:00,
2013-04-14 19:28:00,59.3,26.2,29.79,SW,231,8.0,16.0,28,0.00,,,0.00,VWS V14.01,2013-04-15 02:28:00,
2013-04-14 19:30:00,59.2,26.1,29.78,South,184,3.0,16.0,28,0.00,,,0.00,VWS V14.01,2013-04-15 02:30:00,
2013-04-14 19:33:00,59.1,26.9,29.79,SSW,209,11.0,17.0,29,0.00,,,0.00,VWS V14.01,2013-04-15 02:33:00,
2013-04-14 19:38:00,59.0,26.8,29.79,WSW,240,3.0,17.0,29,0.00,,,0.00,VWS V14.01,2013-04-15 02:38:00,
2013-04-14 19:43:00,58.8,27.5,29.79,WSW,245,9.0,17.0,30,0.00,,,0.00,VWS V14.01,2013-04-15 02:43:00,
2013-04-14 19:48:00,58.6,27.3,29.79,WSW,237,8.0,17.0,30,0.00,,,0.00,VWS V14.01,2013-04-15 02:48:00,
2013-04-14 19:53:00,58.5,27.2,29.79,South,179,8.0,17.0,30,0.00,,,0.00,VWS V14.01,2013-04-15 02:53:00,
2013-04-14 19:58:00,58.4,27.1,29.79,WSW,243,10.0,17.0,30,0.00,,,0.00,VWS V14.01,2013-04-15 02:58:00,
2013-04-14 20:00:00,58.4,27.1,29.79,SW,222,7.0,17.0,30,0.00,,,0.00,VWS V14.01,2013-04-15 03:00:00,
2013-04-14 20:03:00,58.3,27.0,29.79,SW,225,9.0,12.0,30,0.00,,,0.00,VWS V14.01,2013-04-15 03:03:00,
2013-04-14 20:08:00,58.2,26.9,29.79,WSW,237,5.0,12.0,30,0.00,,,0.00,VWS V14.01,2013-04-15 03:08:00,
2013-04-14 20:13:00,58.1,26.9,29.79,SSW,205,8.0,16.0,30,0.00,,,0.00,VWS V14.01,2013-04-15 03:13:00,
2013-04-14 20:18:00,57.9,26.7,29.78,SSW,213,5.0,16.0,30,0.00,,,0.00,VWS V14.01,2013-04-15 03:18:00,
2013-04-14 20:23:00,57.8,27.4,29.78,South,182,6.0,16.0,31,0.00,,,0.00,VWS V14.01,2013-04-15 03:23:00,
2013-04-14 20:28:00,57.6,27.2,29.78,SSW,210,5.0,16.0,31,0.00,,,0.00,VWS V14.01,2013-04-15 03:28:00,
2013-04-14 20:30:00,57.5,27.1,29.78,SW,224,8.0,16.0,31,0.00,,,0.00,VWS V14.01,2013-04-15 03:30:00,
2013-04-14 20:33:00,57.4,27.0,29.78,SSW,194,7.0,14.0,31,0.00,,,0.00,VWS V14.01,2013-04-15 03:33:00,
2013-04-14 20:38:00,57.2,26.9,29.78,WSW,237,7.0,14.0,31,0.00,,,0.00,VWS V14.01,2013-04-15 03:38:00,
2013-04-14 20:43:00,57.2,27.6,29.78,SSW,201,5.0,14.0,32,0.00,,,0.00,VWS V14.01,2013-04-15 03:43:00,
2013-04-14 20:48:00,57.1,27.5,29.78,South,174,3.0,15.0,32,0.00,,,0.00,VWS V14.01,2013-04-15 03:48:00,
2013-04-14 20:53:00,57.0,27.5,29.78,SSW,207,8.0,15.0,32,0.00,,,0.00,VWS V14.01,2013-04-15 03:53:00,
2013-04-14 20:58:00,56.9,28.1,29.78,SSW,210,8.0,17.0,33,0.00,,,0.00,VWS V14.01,2013-04-15 03:58:00,
2013-04-14 21:00:00,56.9,28.1,29.78,South,186,17.0,17.0,33,0.00,,,0.00,VWS V14.01,2013-04-15 04:00:00,
2013-04-14 21:05:00,56.8,28.8,29.78,South,183,8.0,20.0,34,0.00,,,0.00,VWS V14.01,2013-04-15 04:05:00,
2013-04-14 21:10:00,56.7,28.7,29.77,South,174,3.0,20.0,34,0.00,,,0.00,VWS V14.01,2013-04-15 04:10:00,
2013-04-14 21:15:00,56.6,28.6,29.77,South,191,14.0,20.0,34,0.00,,,0.00,VWS V14.01,2013-04-15 04:15:00,
2013-04-14 21:20:00,56.5,29.2,29.78,SW,215,10.0,22.0,35,0.00,,,0.00,VWS V14.01,2013-04-15 04:20:00,
2013-04-14 21:25:00,56.4,29.1,29.77,WSW,244,15.0,22.0,35,0.00,,,0.00,VWS V14.01,2013-04-15 04:25:00,
2013-04-14 21:30:00,56.2,28.9,29.78,SW,214,5.0,13.0,35,0.00,,,0.00,VWS V14.01,2013-04-15 04:30:00,
2013-04-14 21:35:00,56.1,28.8,29.78,SSW,195,19.0,19.0,35,0.00,,,0.00,VWS V14.01,2013-04-15 04:35:00,
2013-04-14 21:40:00,55.9,29.4,29.79,SSW,212,8.0,19.0,36,0.00,,,0.00,VWS V14.01,2013-04-15 04:40:00,
2013-04-14 21:45:00,55.8,29.3,29.79,SSW,202,4.0,19.0,36,0.00,,,0.00,VWS V14.01,2013-04-15 04:45:00,
2013-04-14 21:50:00,55.6,29.1,29.79,SSW,209,7.0,20.0,36,0.00,,,0.00,VWS V14.01,2013-04-15 04:50:00,
2013-04-14 21:55:00,55.5,29.0,29.79,SSW,206,5.0,20.0,36,0.00,,,0.00,VWS V14.01,2013-04-15 04:55:00,
2013-04-14 22:00:00,55.3,28.8,29.79,SW,215,10.0,12.0,36,0.00,,,0.00,VWS V14.01,2013-04-15 05:00:00,
2013-04-14 22:05:00,55.2,28.7,29.79,SW,215,7.0,17.0,36,0.00,,,0.00,VWS V14.01,2013-04-15 05:05:00,
2013-04-14 22:10:00,55.0,28.6,29.80,SW,233,6.0,17.0,36,0.00,,,0.00,VWS V14.01,2013-04-15 05:10:00,
2013-04-14 22:15:00,54.9,28.5,29.80,SW,221,4.0,17.0,36,0.00,,,0.00,VWS V14.01,2013-04-15 05:15:00,
2013-04-14 22:20:00,54.7,29.0,29.80,WSW,253,10.0,18.0,37,0.00,,,0.00,VWS V14.01,2013-04-15 05:20:00,
2013-04-14 22:25:00,54.5,28.8,29.80,South,179,14.0,18.0,37,0.00,,,0.00,VWS V14.01,2013-04-15 05:25:00,
2013-04-14 22:30:00,54.3,28.6,29.80,SW,225,2.0,6.0,37,0.00,,,0.00,VWS V14.01,2013-04-15 05:30:00,
2013-04-14 22:35:00,54.2,29.2,29.79,South,189,8.0,15.0,38,0.00,,,0.00,VWS V14.01,2013-04-15 05:35:00,
2013-04-14 22:40:00,54.0,29.0,29.80,SSW,192,3.0,15.0,38,0.00,,,0.00,VWS V14.01,2013-04-15 05:40:00,
2013-04-14 22:45:00,53.8,28.8,29.79,SSW,200,8.0,16.0,38,0.00,,,0.00,VWS V14.01,2013-04-15 05:45:00,
2013-04-14 22:51:00,53.6,29.3,29.79,SSW,202,7.0,16.0,39,0.00,,,0.00,VWS V14.01,2013-04-15 05:51:00,
2013-04-14 22:56:00,53.4,29.1,29.79,SSW,200,1.0,16.0,39,0.00,,,0.00,VWS V14.01,2013-04-15 05:56:00,
2013-04-14 23:00:00,53.3,29.6,29.79,SSW,198,6.0,16.0,40,0.00,,,0.00,VWS V14.01,2013-04-15 06:00:00,
2013-04-14 23:01:00,53.4,29.1,29.79,South,189,7.0,7.0,39,0.00,,,0.00,VWS V14.01,2013-04-15 06:01:00,
2013-04-14 23:06:00,53.2,29.5,29.79,SW,219,8.0,12.0,40,0.00,,,0.00,VWS V14.01,2013-04-15 06:06:00,
2013-04-14 23:11:00,53.1,29.4,29.79,SSW,208,9.0,12.0,40,0.00,,,0.00,VWS V14.01,2013-04-15 06:11:00,
2013-04-14 23:16:00,53.0,29.3,29.79,SSW,202,9.0,14.0,40,0.00,,,0.00,VWS V14.01,2013-04-15 06:16:00,
2013-04-14 23:21:00,52.9,29.2,29.78,SSW,195,7.0,14.0,40,0.00,,,0.00,VWS V14.01,2013-04-15 06:21:00,
2013-04-14 23:26:00,52.7,29.1,29.78,South,183,2.0,14.0,40,0.00,,,0.00,VWS V14.01,2013-04-15 06:26:00,
2013-04-14 23:30:00,52.6,29.0,29.78,South,184,7.0,14.0,40,0.00,,,0.00,VWS V14.01,2013-04-15 06:30:00,
2013-04-14 23:32:00,52.5,29.5,29.78,SSE,167,6.0,13.0,41,0.00,,,0.00,VWS V14.01,2013-04-15 06:32:00,
2013-04-14 23:37:00,52.2,29.2,29.78,South,187,10.0,17.0,41,0.00,,,0.00,VWS V14.01,2013-04-15 06:37:00,
2013-04-14 23:42:00,52.0,29.6,29.78,SW,221,10.0,17.0,42,0.00,,,0.00,VWS V14.01,2013-04-15 06:42:00,
2013-04-14 23:47:00,51.7,29.9,29.78,SSW,193,5.0,17.0,43,0.00,,,0.00,VWS V14.01,2013-04-15 06:47:00,
2013-04-14 23:52:00,51.4,29.7,29.78,South,190,8.0,18.0,43,0.00,,,0.00,VWS V14.01,2013-04-15 06:52:00,
2013-04-14 23:57:00,51.2,29.5,29.78,South,182,9.0,18.0,43,0.00,,,0.00,VWS V14.01,2013-04-15 06:57:00,